Wind_Speed
81 82 82 83 84 85 86 88 88 88 87 88 89 90 91 92 93 95 96 98 99 100 102 102 101 100 100 99 99 99 98 98 98 97 97 97 96 96 96 95 95 95 95 96 96 95 96 96 98 98 98 99 100 102 104 107 110 113 116 119 121 123 124 125 126 129 134 140 143 144 146 148 149 152 154 156 156 157 157 158 160 161 163 164 165
81 82 82 83 84 86 87 88 87 87 87 88 89 90 91 91 93 94 95 96 97 98 99 98 98 97 97 96 96 96 95 95 95 95 94 94 93 93 92 92 92 92 92 93 93 93 93 94 95 96 96 96 98 99 101 103 105 108 111 114 117 119 121 122 123 124 128 134 139 141 143 144 146 147 150 153 155 155 155 155 156 158 160 161 163
81 81 82 83 85 86 87 87 86 86 86 87 88 89 90 91 92 93 93 94 95 96 96 95 94 94 94 94 94 93 93 93 93 92 91 90 89 89 89 88 89 89 90 90 90 90 91 92 93 93 93 94 95 96 97 99 101 103 106 109 112 115 118 119 120 121 124 129 133 137 139 141 143 144 146 149 152 153 154 153 154 155 157 158 160
80 81 82 84 86 87 87 86 85 86 86 87 88 88 89 90 90 91 92 92 93 93 93 92 92 92 92 92 92 91 91 90 89 88 87 86 85 85 86 86 86 86 87 88 88 88 89 89 90 91 91 92 93 93 94 95 97 99 101 104 106 110 113 115 117 119 121 124 128 132 135 138 140 142 143 145 148 150 152 152 152 152 153 155 157
81 82 83 85 86 87 86 85 85 86 86 87 87 88 88 89 89 90 90 91 91 91 90 89 89 89 89 89 89 88 88 87 86 85 83 83 82 82 83 83 84 84 85 85 86 86 86 87 88 88 89 89 90 91 92 93 94 96 97 99 102 104 107 110 112 115 117 120 124 128 130 133 136 139 141 143 145 147 149 150 151 151 151 152 153
81 83 84 86 87 86 85 85 85 86 86 87 87 87 88 88 88 89 89 89 89 88 87 87 87 87 87 87 86 86 84 83 82 81 80 79 79 79 80 80 81 82 82 83 83 84 84 84 85 86 86 87 87 88 89 90 92 93 94 96 98 100 102 105 107 110 113 115 119 123 126 129 132 136 139 141 143 144 146 147 149 150 150 149 149
82 84 85 86 86 86 85 85 85 86 86 86 86 87 87 87 88 88 88 88 87 86 86 86 86 85 84 84 84 82 81 80 78 78 77 76 76 77 77 78 78 79 80 81 81 81 81 81 82 82 83 84 85 86 87 88 89 90 92 93 94 96 98 100 103 105 108 111 114 118 121 125 128 131 135 138 140 142 144 145 146 147 148 148 147
83 85 86 86 86 85 85 85 85 86 86 86 86 87 87 86 87 87 87 87 86 85 85 85 84 83 83 82 81 80 78 77 76 74 74 74 74 74 74 75 76 77 78 78 78 78 78 78 79 79 80 81 82 83 84 85 86 88 89 90 91 93 94 97 99 101 104 106 109 112 116 119 123 127 131 134 136 139 141 143 143 144 145 146 146
84 86 86 86 86 85 85 85 86 86 86 86 86 86 86 85 86 86 86 86 85 84 84 84 83 82 81 80 79 78 77 75 73 72 72 71 71 71 71 72 73 74 75 75 75 75 75 75 76 77 78 79 79 80 81 82 83 85 86 87 88 90 91 93 96 98 100 102 105 108 111 114 119 123 127 130 132 135 137 140 141 142 144 144 144
86 87 87 87 86 86 86 86 86 87 86 86 85 85 84 84 85 85 85 85 84 84 83 83 82 81 79 78 77 76 75 73 71 70 70 69 68 68 68 69 70 71 72 72 72 72 72 73 74 74 75 76 77 78 79 80 81 82 83 84 85 86 88 91 93 95 97 99 101 104 106 109 114 118 122 126 128 130 133 136 138 140 142 142 142
87 88 88 87 87 86 86 87 86 86 86 85 84 83 83 84 84 84 84 84 84 83 83 82 81 79 77 76 76 75 73 71 69 69 68 67 66 65 66 68 69 69 69 70 70 70 70 71 71 72 73 74 75 76 77 78 78 79 80 81 82 84 86 89 91 93 95 96 98 100 102 105 110 114 117 121 124 127 129 132 133 135 138 139 139
88 88 88 88 87 87 87 86 86 85 85 83 83 83 83 83 84 83 83 83 83 83 82 81 79 77 76 74 74 73 71 69 68 67 66 64 63 63 65 67 67 67 67 67 68 68 68 68 69 70 71 72 73 74 75 75 75 76 77 78 80 82 84 86 88 90 92 93 95 97 100 102 106 109 113 116 120 122 124 127 129 131 133 135 136
89 89 88 88 87 87 87 86 85 84 83 82 82 83 83 83 83 83 83 83 83 83 81 80 78 76 74 73 72 71 69 67 66 65 64 62 60 60 63 65 66 67 66 66 66 66 66 66 67 68 69 70 71 71 72 72 72 73 74 76 78 80 82 83 85 87 88 90 92 95 97 100 102 105 109 112 115 117 120 123 125 127 128 130 131
89 89 89 88 87 87 86 85 84 83 82 82 82 83 83 83 83 82 82 83 83 82 80 79 77 75 73 71 71 70 68 65 64 64 62 60 59 59 61 63 65 65 65 64 64 63 64 64 65 66 67 68 68 69 69 69 69 70 72 74 76 78 79 80 82 83 85 87 90 92 95 97 99 102 106 109 111 113 116 119 121 123 124 125 127
90 90 89 88 88 87 86 85 84 82 82 81 82 82 83 83 83 82 82 82 82 81 79 77 75 73 71 70 69 69 66 64 63 62 60 59 58 58 59 61 62 63 64 63 62 62 62 63 63 64 65 66 66 65 65 65 65 67 70 72 74 75 76 78 79 81 82 84 86 89 92 94 96 98 102 105 107 109 112 115 117 119 120 121 123
90 90 89 88 88 87 85 84 83 82 81 82 82 83 83 83 82 82 82 82 81 80 77 75 74 72 70 68 67 67 65 62 61 61 59 57 57 57 58 59 60 61 61 61 62 62 62 62 62 63 64 64 64 63 62 61 62 65 68 70 71 72 74 76 77 79 80 82 83 86 89 92 94 96 98 102 104 106 108 110 113 115 117 118 120
90 89 89 89 88 86 85 83 82 82 82 82 82 83 83 82 82 81 81 81 80 78 75 74 72 71 69 67 66 66 64 61 59 59 58 56 56 57 57 57 58 58 59 59 60 60 61 61 61 62 63 63 63 62 60 59 61 64 66 67 68 69 71 74 76 77 78 79 81 84 87 90 92 93 95 98 101 103 104 106 109 112 114 115 116
90 89 89 89 88 86 84 83 82 82 82 82 83 83 83 82 81 81 80 80 79 77 74 72 71 69 67 66 64 64 63 61 58 57 57 55 55 56 56 57 57 57 58 58 59 59 59 59 60 61 62 62 62 61 59 59 61 63 64 64 65 67 70 71 72 73 76 78 80 82 84 86 88 90 92 95 98 100 101 103 105 108 109 110 112
90 90 90 89 87 86 84 83 83 82 82 83 83 83 82 82 81 80 80 79 78 75 73 71 70 68 66 64 63 62 62 61 58 56 56 55 54 55 55 56 56 57 57 58 58 58 58 58 58 59 60 61 61 60 59 59 60 61 61 62 64 67 68 68 69 71 74 76 78 80 82 84 86 87 90 93 95 97 98 99 102 104 104 105 108
91 91 90 89 87 85 84 83 83 83 83 83 83 83 82 81 81 80 79 78 76 74 72 70 69 68 65 63 61 60 60 60 58 56 55 55 54 54 54 55 55 56 57 58 58 58 57 57 58 58 58 59 60 60 59 59 59 58 59 61 63 64 65 66 68 70 72 73 75 78 81 83 84 85 87 90 93 94 95 96 98 100 101 102 105
91 91 90 88 86 85 84 83 83 83 83 83 83 83 82 81 80 79 78 77 75 73 71 69 68 67 65 62 60 59 58 58 58 56 55 55 54 53 53 54 54 55 57 57 57 57 56 56 57 57 57 57 58 59 58 58 57 56 57 59 61 62 63 66 67 68 70 72 75 76 78 80 81 82 84 87 90 92 92 93 94 95 97 99 101
92 91 89 88 86 84 84 84 83 83 83 83 83 82 82 80 79 78 76 75 74 72 70 68 67 66 64 61 59 58 57 57 57 56 55 55 54 53 53 53 53 54 55 57 57 56 56 56 56 56 56 56 57 57 57 56 55 55 55 57 58 59 62 65 65 66 69 72 73 75 77 78 78 79 81 84 87 89 90 90 90 91 93 95 98
91 91 89 87 85 84 84 84 83 83 83 83 82 82 81 80 78 76 74 73 73 71 69 67 66 65 63 61 58 57 56 56 55 55 55 55 55 54 53 53 52 52 54 55 56 56 56 56 55 55 55 55 55 55 55 54 53 53 54 55 55 56 60 63 64 66 69 71 72 74 76 76 76 76 77 79 83 86 87 87 88 88 89 91 93
91 90 88 86 84 84 84 84 84 83 83 82 82 81 80 78 77 75 73 71 71 70 68 66 64 63 63 61 59 57 56 55 55 54 55 55 55 55 54 54 53 52 53 54 54 55 55 55 55 54 55 55 55 54 53 53 52 51 52 52 52 53 55 59 61 64 68 70 72 73 75 75 74 73 73 75 78 81 84 85 85 85 86 88 89
90 89 87 85 84 84 84 84 84 83 83 82 81 80 78 76 75 73 71 70 69 68 66 64 63 62 61 61 59 57 56 55 54 54 54 55 55 55 55 55 54 54 54 53 53 54 55 54 54 54 55 55 54 53 52 52 51 51 51 50 50 50 51 54 57 61 65 69 71 73 74 74 72 71 71 71 73 76 79 81 82 82 83 84 86
89 87 86 84 84 84 84 84 84 83 82 81 81 79 77 74 73 71 69 68 67 66 64 63 61 61 60 60 59 58 57 55 54 53 53 53 54 55 56 57 57 56 55 54 53 53 53 53 52 53 53 53 53 52 52 51 51 51 51 51 50 49 49 50 54 57 61 65 69 73 74 73 70 68 68 68 69 71 74 76 78 80 80 81 82
88 86 85 84 84 83 84 84 83 83 82 81 80 78 75 72 71 69 67 66 66 64 62 61 60 59 60 59 58 58 58 56 54 53 52 52 54 55 56 57 58 58 57 55 55 54 53 52 52 51 51 51 51 51 50 50 50 50 51 51 50 49 48 49 51 54 57 62 66 71 73 72 69 67 66 65 66 68 69 71 73 76 77 77 78
86 85 84 83 84 83 83 83 82 82 82 81 79 77 73 70 69 68 65 64 63 62 61 60 59 58 58 58 57 58 58 57 55 54 52 52 53 55 56 57 58 58 58 57 57 56 54 53 52 50 49 49 49 49 49 48 49 50 50 50 50 50 48 48 49 51 55 59 64 68 70 69 67 66 64 63 63 64 65 66 69 72 74 74 76
85 84 83 83 83 83 83 82 81 81 81 80 78 76 72 69 67 66 64 62 61 61 60 59 58 57 58 58 57 58 59 58 56 55 54 53 54 55 56 57 57 57 57 57 57 56 54 52 50 47 45 45 45 46 47 47 47 47 48 48 49 49 48 47 48 50 53 57 62 65 66 66 64 63 62 61 61 61 61 62 65 69 71 72 74
84 83 83 83 83 82 82 81 81 80 79 78 76 74 72 68 64 63 63 61 59 58 58 57 57 56 57 57 57 56 57 58 57 56 54 53 54 55 56 57 56 56 57 57 56 55 54 52 49 45 43 41 42 43 44 44 45 45 45 46 48 48 48 47 47 48 51 55 59 62 62 61 60 60 59 59 58 58 58 60 63 66 68 69 72
82 82 82 82 82 82 81 81 80 80 78 76 73 72 71 68 64 60 60 60 59 57 56 56 56 56 56 56 57 58 58 58 58 57 56 54 54 55 57 58 57 57 58 59 58 58 57 56 53 49 46 44 43 42 42 42 42 42 43 44 45 46 47 47 48 48 50 52 54 58 60 58 55 55 55 56 56 56 57 59 61 64 66 67 69
81 81 81 81 81 81 80 80 79 78 76 74 71 69 68 67 65 61 58 57 56 55 54 54 55 55 55 55 56 57 58 59 59 59 58 57 56 56 57 59 58 57 58 59 58 58 59 58 56 53 50 48 47 46 44 42 41 40 40 41 42 43 44 46 48 49 50 50 51 53 56 56 54 52 51 52 54 55 55 56 59 62 64 66 67
80 80 80 80 80 80 79 79 78 76 74 71 70 68 66 65 65 63 60 57 54 53 52 51 52 54 55 56 56 57 57 57 57 58 57 57 56 55 56 58 57 57 57 58 58 57 58 57 56 54 52 50 49 47 46 44 42 40 40 39 39 40 41 43 46 49 50 51 50 50 51 53 53 51 49 49 51 53 54 54 56 60 62 64 66
79 79 79 79 79 79 79 78 76 74 71 69 68 66 65 63 63 63 62 59 57 54 51 50 51 52 54 56 57 58 58 57 56 55 55 55 55 54 55 57 57 56 57 58 58 58 58 58 57 55 53 51 49 48 46 44 43 41 40 39 38 38 39 40 43 47 49 51 50 49 48 50 51 50 49 47 48 51 52 53 54 57 60 63 64
79 79 78 78 78 78 77 76 74 71 69 68 66 65 63 63 62 61 60 60 59 57 55 53 52 53 54 55 56 57 58 57 56 54 53 52 52 52 53 55 56 56 56 57 57 58 58 58 57 56 54 52 50 48 46 44 42 41 40 39 38 37 37 38 41 44 47 48 49 48 47 47 48 49 48 46 47 48 50 51 53 55 58 60 62
78 78 77 77 77 77 76 74 71 69 67 66 65 63 62 62 61 60 59 58 59 59 59 58 57 57 57 56 56 57 57 57 56 55 53 52 51 51 52 53 54 55 56 57 57 57 57 56 56 55 54 53 51 49 47 45 42 41 39 38 37 36 36 36 38 41 44 46 46 45 45 45 46 47 46 46 46 47 48 49 51 54 56 58 60
77 77 76 76 76 76 74 71 69 67 66 64 63 62 61 61 60 59 58 58 59 60 61 61 61 60 59 58 57 57 57 57 56 55 54 53 53 52 52 52 53 55 56 56 56 56 56 56 55 55 54 52 50 49 47 46 44 41 39 38 37 36 36 36 37 39 42 43 43 42 42 42 43 44 45 44 44 46 47 48 50 52 54 56 57
76 76 75 75 75 74 72 70 67 66 65 63 62 61 61 60 59 58 58 59 60 61 61 62 62 62 61 60 58 58 58 57 56 56 56 55 54 54 53 53 53 54 55 55 55 55 55 55 55 54 54 52 50 48 46 45 44 42 40 38 37 36 36 36 36 38 40 41 40 39 40 40 40 42 42 42 43 45 46 47 48 50 52 54 55
76 75 75 74 74 72 70 68 66 65 64 62 61 60 60 59 58 58 58 59 60 61 61 62 61 61 61 61 61 60 60 60 59 58 57 57 56 55 55 54 54 54 54 53 53 52 53 53 54 53 53 51 50 48 46 44 43 42 41 39 37 36 36 36 36 37 39 39 37 37 37 38 38 39 40 41 42 43 45 46 47 49 50 52 53
75 74 74 74 72 70 68 66 65 64 63 62 60 60 59 58 58 58 59 60 60 61 61 61 61 61 61 61 61 62 62 62 61 61 60 60 59 58 57 56 56 55 54 52 51 50 51 51 51 51 50 49 48 47 46 44 42 41 40 38 37 36 36 36 35 36 37 37 35 35 35 36 36 37 38 39 41 42 43 44 46 47 48 50 51
74 74 73 73 71 69 67 65 64 63 62 61 60 59 59 58 58 59 59 59 60 61 61 61 61 61 61 61 62 62 62 62 62 62 61 61 61 60 60 59 59 58 56 54 52 50 50 49 48 47 47 46 45 45 45 44 41 39 38 37 37 36 36 35 35 35 36 35 33 33 33 34 35 36 37 38 39 41 42 43 44 45 46 48 49
73 73 73 72 70 68 66 65 64 63 61 60 59 59 59 59 59 59 59 59 59 60 61 61 62 62 62 62 62 63 62 62 61 61 61 60 60 59 59 59 58 58 56 54 53 52 50 49 47 45 45 43 42 42 43 43 40 38 36 36 36 36 36 35 34 35 34 33 31 31 32 32 33 35 36 37 38 39 40 41 42 43 44 46 47
72 72 72 70 68 67 66 64 63 62 61 60 59 59 59 59 59 59 59 59 59 60 60 61 62 63 64 64 64 63 63 62 61 60 59 59 58 57 57 57 56 55 54 53 52 51 50 48 46 44 43 42 41 41 41 40 39 37 35 34 35 35 35 34 34 33 32 31 30 30 30 31 32 33 34 35 36 37 38 39 40 41 43 44 44
72 72 71 69 67 66 65 64 63 62 61 60 59 59 59 59 59 59 59 59 59 59 60 61 62 63 64 64 64 64 63 62 61 60 59 58 57 56 55 54 53 52 51 50 49 48 48 47 45 44 42 40 39 39 39 38 37 35 34 33 34 34 34 33 32 32 30 29 28 29 29 30 31 32 32 33 34 35 36 37 38 39 41 41 42
71 71 70 68 66 65 64 63 62 62 61 60 59 59 59 59 59 59 59 59 59 59 60 61 62 63 64 65 65 64 63 61 60 59 58 56 56 55 54 53 51 50 49 48 47 46 45 44 43 42 40 39 38 38 37 36 35 33 33 33 32 32 32 32 31 29 28 28 27 27 28 29 30 30 30 32 33 33 34 35 36 38 38 39 40
70 70 69 67 66 64 63 62 62 61 60 59 59 59 59 59 59 59 59 59 59 59 60 62 63 64 64 64 64 63 62 60 58 57 56 55 54 53 52 51 50 49 48 46 45 43 42 42 41 39 38 37 36 36 35 34 33 32 32 31 31 31 30 29 28 27 27 26 26 26 27 27 28 28 29 30 31 32 33 34 35 36 36 37 38
70 69 68 66 65 64 63 62 61 61 60 59 59 59 60 60 60 60 60 59 59 60 61 62 63 64 64 64 63 62 60 58 57 55 54 53 53 52 51 49 49 48 46 45 43 42 40 39 38 37 36 35 34 33 33 32 31 30 30 29 29 28 28 27 26 26 25 25 25 25 26 26 26 26 28 29 29 30 31 32 33 34 35 35 36
69 68 67 66 65 64 63 62 61 61 60 59 59 59 60 60 60 60 60 60 59 60 61 63 64 65 65 64 63 61 59 57 55 54 53 52 51 51 50 49 48 46 45 43 41 40 39 38 36 35 34 33 32 31 30 30 29 28 28 27 26 26 25 25 25 24 24 24 24 24 24 24 24 25 26 27 28 29 30 31 31 32 33 34 35
68 67 66 65 64 63 63 62 61 61 60 60 60 60 60 60 60 60 60 60 60 60 61 63 64 65 64 63 62 60 58 56 55 53 52 52 51 50 49 48 47 45 43 41 40 39 37 36 35 34 32 31 30 29 28 27 27 26 26 25 24 24 24 24 23 23 22 22 22 22 22 22 23 24 25 26 27 27 28 29 30 31 32 32 33
68 67 65 64 64 63 62 61 61 61 60 60 60 60 60 61 61 61 60 60 60 61 62 63 64 64 64 63 61 59 57 55 54 53 52 51 51 50 49 48 46 43 41 40 39 37 36 35 34 32 31 30 29 28 26 25 25 24 23 22 22 22 22 22 21 21 21 21 21 20 20 21 22 23 24 25 25 26 27 28 29 29 30 30 31
67 66 65 64 63 62 62 61 61 60 60 59 59 60 60 61 61 61 60 60 60 61 62 64 64 64 63 62 60 58 56 54 53 53 52 51 50 50 49 47 45 42 40 39 38 36 35 33 32 31 30 29 27 26 25 23 22 21 21 21 20 20 20 20 19 19 19 19 19 19 19 20 21 22 23 24 24 25 26 26 27 28 28 29 29
Wind_Direction
302 302 302 302 302 302 301 301 300 300 299 297 295 294 293 292 291 291 290 290 289 289 289 289 290 290 290 289 289 288 288 287 287 286 285 284 283 281 280 279 278 276 275 274 272 271 269 267 266 264 262 260 258 256 254 252 251 250 250 250 250 249 248 247 246 245 246 247 248 248 248 248 248 249 249 249 249 248 247 247 247 247 247 247 247
304 304 304 304 304 304 303 302 302 301 300 298 296 295 294 293 292 292 292 292 292 292 292 292 292 292 292 291 290 290 289 289 288 287 286 285 284 282 281 280 278 277 275 274 272 271 269 268 266 265 263 261 260 258 256 254 252 251 250 249 249 249 248 247 246 245 244 246 247 247 248 248 247 247 248 249 249 248 247 247 246 246 246 246 246
305 306 306 306 305 305 304 304 303 302 300 298 296 295 295 294 294 294 294 294 294 294 294 294 294 294 293 293 292 292 291 290 289 288 287 285 284 283 281 280 278 277 275 274 272 271 269 268 267 265 264 262 261 259 257 256 254 252 251 250 249 249 248 248 247 245 244 244 245 246 247 247 247 247 247 247 248 248 248 247 246 245 245 245 245
307 308 308 307 306 306 305 305 304 302 300 298 297 297 297 296 296 296 296 296 296 295 296 296 295 295 294 294 293 293 292 291 289 288 287 286 285 283 282 280 278 277 275 274 272 271 269 268 267 266 264 263 261 260 258 257 255 254 252 251 249 248 248 247 247 246 245 244 245 245 246 246 247 247 247 246 247 247 248 247 246 245 244 244 244
310 309 309 308 307 307 307 306 305 303 301 300 299 299 299 298 298 298 298 297 297 297 297 297 296 295 295 295 294 293 292 291 290 289 288 287 285 284 282 280 279 277 275 274 272 271 270 268 267 266 265 263 262 261 259 258 256 255 253 252 250 249 248 247 247 246 245 245 245 245 245 245 246 246 247 247 246 246 247 247 247 246 245 244 243
311 311 310 309 309 309 308 307 305 303 302 301 301 301 301 301 301 300 299 299 299 299 299 298 297 297 296 296 295 294 293 292 291 290 289 287 286 284 282 281 279 277 276 274 273 271 270 269 267 266 265 264 262 261 260 258 257 255 254 253 251 250 249 248 247 246 245 245 244 245 245 245 245 245 246 246 246 246 246 246 246 247 246 245 244
312 311 311 310 310 310 309 308 306 305 304 304 304 303 303 303 302 302 301 301 301 300 300 299 298 298 298 297 296 295 294 293 292 291 290 288 286 285 283 281 279 278 276 274 273 272 270 269 268 267 265 264 263 261 260 259 258 256 255 253 252 251 250 248 247 246 245 244 244 244 244 245 245 245 245 245 245 246 246 246 246 246 246 246 245
313 312 312 311 312 311 310 309 307 306 306 306 305 305 305 304 304 303 303 302 302 302 301 301 300 300 299 298 297 296 295 294 293 292 291 289 287 285 284 282 280 278 277 275 274 272 271 270 268 267 266 264 263 262 261 259 258 257 255 254 253 251 250 249 248 247 246 245 244 243 243 244 244 244 245 245 245 245 246 246 246 246 246 246 245
314 313 313 313 313 312 311 310 309 308 308 307 307 306 306 305 305 304 304 304 304 304 303 302 302 302 301 300 299 298 297 296 295 294 292 290 288 286 284 283 281 279 278 276 275 274 272 271 269 268 266 265 264 262 261 260 258 257 256 255 254 252 251 250 249 248 247 246 245 244 243 243 243 244 244 244 244 244 245 245 246 246 246 245 245
315 314 315 315 315 314 312 311 310 309 309 308 308 307 307 307 306 306 306 306 306 305 304 304 304 303 303 301 300 299 298 297 296 295 293 291 289 288 286 283 282 280 279 278 276 275 273 272 270 269 267 266 264 263 261 260 259 258 257 256 254 253 252 251 250 249 247 246 245 244 244 243 243 243 244 244 244 244 244 244 244 245 246 246 245
316 316 316 316 315 314 313 311 311 310 309 309 309 308 308 308 308 308 308 307 307 306 306 306 305 304 304 302 301 300 299 298 297 296 294 292 291 289 287 285 283 281 280 279 277 276 274 273 271 270 268 266 265 264 262 261 260 259 258 256 255 254 252 251 250 249 248 247 246 245 244 243 243 243 243 244 244 244 244 245 244 244 245 245 245
317 317 317 317 316 314 313 312 311 310 310 310 310 310 310 310 309 310 309 309 308 308 307 307 306 305 304 303 302 301 300 299 298 296 294 293 292 291 289 286 284 283 281 280 278 277 276 275 273 271 270 268 266 265 263 262 261 260 259 257 256 254 252 251 250 250 249 248 247 246 245 244 243 243 243 243 244 244 244 245 245 244 244 245 245
317 317 317 317 315 314 313 312 312 311 311 311 312 311 311 311 311 311 311 310 309 309 308 308 307 306 305 304 303 301 300 300 298 297 295 294 293 292 290 288 286 284 283 281 280 279 278 276 275 273 271 269 268 266 265 264 262 261 259 258 257 255 254 252 251 250 249 248 247 247 246 244 244 243 243 243 243 243 244 244 244 244 244 244 244
318 318 318 317 315 314 314 313 313 312 313 313 313 312 312 312 312 312 312 311 310 309 309 308 307 307 306 305 303 302 301 300 299 297 296 295 294 293 291 289 288 287 285 284 283 281 280 278 276 274 272 270 269 268 267 266 264 262 260 258 257 256 255 253 252 251 250 249 248 247 246 245 244 244 243 243 243 243 243 244 244 244 244 244 244
318 318 318 317 316 315 314 314 314 313 314 314 314 314 314 313 313 313 312 311 310 310 310 309 308 307 306 306 304 302 302 301 299 298 297 296 295 293 291 290 289 288 288 287 286 284 282 280 278 276 275 273 271 269 268 266 265 263 261 260 258 256 255 254 253 251 250 249 248 248 247 246 245 244 244 243 243 243 243 243 244 244 244 244 244
318 318 318 317 316 316 315 315 315 315 315 315 315 315 315 314 314 313 313 312 311 311 310 310 309 308 307 306 305 303 302 301 300 298 298 297 296 294 292 291 290 289 289 289 287 286 284 283 281 280 278 276 274 271 269 267 265 263 262 260 259 257 256 255 253 252 250 249 248 247 247 247 245 244 243 243 243 242 242 242 243 243 243 243 243
318 319 318 317 317 316 316 316 316 316 316 316 316 316 315 315 314 314 313 312 312 311 311 310 309 308 307 307 305 304 302 301 300 299 298 298 297 295 293 292 291 290 290 289 287 286 285 284 283 282 280 278 276 274 272 269 267 265 263 261 260 258 257 255 253 252 251 250 249 247 246 246 246 245 244 243 243 243 242 242 242 242 243 243 243
319 319 319 318 318 317 317 317 317 317 317 317 317 317 316 315 315 314 314 313 312 312 312 311 309 308 308 307 306 304 302 301 300 300 299 298 297 296 294 293 293 292 291 290 288 287 286 284 283 282 280 279 277 275 274 271 268 266 264 263 262 260 257 256 255 254 252 251 249 248 247 246 246 246 245 244 243 243 242 242 242 242 242 242 243
320 320 319 319 319 318 318 318 318 318 318 318 318 317 316 316 316 315 315 314 313 313 312 311 310 309 308 307 306 304 303 302 301 300 300 299 298 296 295 295 294 294 292 291 290 289 287 285 283 282 281 279 278 276 274 271 269 268 266 265 264 262 260 258 257 255 253 251 250 249 248 247 245 245 245 245 244 243 242 241 242 242 241 241 242
320 320 319 319 319 319 318 318 318 319 319 319 318 317 317 317 317 316 316 315 314 313 313 312 310 309 309 308 306 305 303 302 302 301 300 299 298 297 296 295 295 295 293 292 291 290 289 287 285 283 281 279 278 277 275 273 271 269 268 266 264 263 262 260 258 256 254 253 251 248 247 247 246 245 244 244 245 244 243 242 241 242 241 241 241
321 320 320 320 320 319 319 319 319 320 320 319 318 317 317 318 318 317 316 315 314 314 313 312 311 310 309 308 307 305 304 303 302 302 301 300 298 297 296 296 296 295 294 293 292 291 290 288 286 283 281 279 278 277 275 274 272 270 268 266 265 264 263 261 259 258 256 255 253 250 248 246 245 245 245 244 245 245 244 243 241 241 241 241 241
321 320 320 320 320 320 319 320 320 320 320 320 319 318 318 319 319 318 317 316 315 314 313 313 311 310 309 308 307 306 305 304 303 303 302 300 299 298 297 296 296 296 295 294 294 293 292 290 287 284 282 280 279 277 276 274 273 270 268 266 265 264 263 262 260 259 257 256 254 253 251 248 246 244 244 245 245 245 244 244 242 241 241 241 241
321 320 321 320 320 320 320 320 321 321 320 320 319 319 320 320 319 318 317 316 315 314 313 313 312 311 310 309 308 307 306 305 304 304 303 301 300 299 298 297 297 297 296 295 295 295 293 291 289 287 285 283 280 279 277 275 273 271 268 265 263 262 262 262 261 260 259 257 256 254 253 251 248 245 243 243 245 246 245 244 243 242 241 241 240
321 321 321 321 320 321 321 321 321 321 320 320 320 320 320 320 319 318 317 316 315 314 314 314 312 311 310 309 308 308 306 306 305 305 304 303 302 301 300 299 299 298 297 297 297 296 295 294 292 290 288 285 283 282 280 278 275 273 270 266 263 260 259 259 259 259 259 258 257 256 254 252 250 248 246 244 243 245 246 245 244 243 242 241 241
321 321 321 321 321 322 322 322 321 321 321 321 321 321 321 321 319 318 318 317 315 314 314 314 313 312 310 309 309 308 307 306 306 305 305 304 304 303 302 302 301 300 299 299 298 298 296 296 295 293 291 289 288 286 284 282 279 277 273 270 266 262 259 257 257 257 257 258 258 257 256 254 252 250 248 246 244 244 245 245 245 243 242 241 241
321 321 321 321 322 322 322 322 322 321 321 321 321 321 321 321 319 319 318 317 315 315 315 315 313 312 310 310 310 309 308 308 307 306 306 306 305 305 304 304 303 302 302 301 300 299 297 297 296 294 293 292 291 289 287 285 282 280 277 274 270 266 262 259 257 255 255 256 257 258 257 256 255 252 250 248 247 245 244 244 245 244 243 241 241
322 321 321 322 322 323 322 322 322 322 322 322 322 322 322 321 320 319 318 317 316 316 316 315 314 313 311 311 311 310 309 309 309 308 308 308 307 306 305 304 304 303 303 303 302 300 299 298 297 296 294 293 291 290 288 286 284 281 278 275 273 270 266 262 259 256 255 255 255 256 257 257 256 255 253 250 248 247 245 244 244 245 244 242 241
322 321 322 322 323 323 323 323 323 323 322 322 322 322 322 321 320 319 319 319 318 317 317 316 315 314 312 312 312 310 309 310 310 310 310 309 308 306 305 305 304 304 304 304 303 302 301 299 297 296 294 293 291 290 288 286 284 281 279 277 275 272 269 265 261 258 256 255 255 255 256 257 257 256 254 252 250 248 246 245 244 244 244 242 241
322 322 322 323 323 323 323 323 323 323 323 323 323 322 321 322 321 321 320 320 319 319 318 317 316 315 313 313 313 312 311 311 312 312 311 311 309 307 305 304 304 303 303 302 301 300 298 297 295 293 292 291 291 290 289 288 285 282 279 277 275 273 270 267 263 260 257 256 256 256 256 257 257 256 255 253 251 249 247 245 244 244 243 242 241
322 322 323 324 324 324 324 323 324 324 324 323 323 322 321 322 322 322 321 321 321 320 318 318 317 316 314 313 313 312 312 312 312 312 312 311 309 307 305 304 304 304 304 303 302 302 301 299 298 296 294 293 291 290 290 288 286 284 281 278 275 273 271 268 264 261 258 257 258 258 258 257 257 256 255 254 251 249 247 245 244 243 242 241 241
323 323 324 324 325 324 324 324 324 324 324 323 323 322 322 322 323 323 323 322 321 321 320 319 318 317 316 315 314 313 313 313 313 313 313 312 310 309 308 307 307 308 307 306 307 307 306 305 304 303 301 299 296 293 291 288 286 284 282 279 277 275 273 271 267 263 260 257 257 259 260 260 257 255 254 253 251 249 246 245 244 243 242 240 240
323 324 324 325 325 324 324 325 325 325 324 324 323 323 323 323 323 324 324 323 322 322 321 320 318 317 317 316 316 315 314 315 314 314 314 313 312 311 309 308 309 309 308 307 308 307 306 306 305 305 304 303 301 298 295 291 287 283 280 277 275 273 272 271 269 267 264 261 258 258 260 261 260 256 254 252 251 249 246 244 243 243 242 241 239
324 324 325 326 325 325 325 326 325 325 324 324 324 324 324 324 324 324 324 324 323 322 322 321 320 319 319 318 316 315 314 314 313 313 313 312 311 310 309 308 308 309 308 307 307 307 305 305 304 304 304 303 302 300 298 294 291 286 281 277 274 271 269 268 267 267 266 265 262 259 259 260 260 259 255 252 250 249 247 244 242 242 242 241 240
325 325 326 326 325 325 326 326 325 325 325 325 325 325 326 326 326 325 325 324 324 323 323 323 323 322 321 319 317 315 314 313 313 312 312 311 310 310 309 308 309 309 308 308 308 307 306 305 305 304 304 303 302 301 298 295 292 288 284 280 276 272 268 266 265 264 265 265 264 263 261 260 260 259 257 253 250 249 247 245 243 242 242 241 240
326 326 326 326 326 326 326 326 326 325 326 326 326 326 327 327 326 326 325 325 325 325 325 326 326 325 323 320 318 315 314 313 313 312 311 310 310 310 309 309 309 310 309 309 308 307 306 305 305 304 304 304 303 302 299 296 293 290 286 283 279 275 271 267 265 264 263 264 264 263 262 260 260 259 257 254 251 248 247 245 243 242 241 241 240
326 327 327 327 327 326 326 326 326 326 327 327 327 327 328 327 327 326 326 326 327 327 328 328 328 326 324 321 319 316 315 314 314 314 313 312 312 311 311 311 311 310 310 309 308 307 305 304 304 304 304 304 303 302 300 297 294 291 288 285 282 278 273 269 266 264 264 263 263 263 262 260 259 258 257 255 252 249 247 245 243 242 241 240 240
327 327 327 327 327 327 327 327 327 327 328 328 328 328 328 327 327 327 327 328 329 329 329 328 327 326 324 322 320 318 317 317 317 317 316 316 315 314 313 313 312 311 310 309 308 307 305 305 304 304 303 303 303 301 299 298 295 293 290 287 284 280 275 271 267 265 264 264 263 262 261 259 258 256 255 254 251 249 247 244 242 241 241 240 240
327 328 328 328 328 327 327 328 328 329 329 329 329 329 328 327 327 328 329 330 330 330 329 327 326 325 324 323 323 321 320 320 320 319 318 318 317 316 315 314 313 312 311 309 308 307 306 305 305 304 303 303 302 300 298 296 295 293 291 288 285 281 277 273 269 266 265 264 263 262 260 259 257 255 254 252 250 248 246 244 242 241 240 240 239
328 328 328 328 328 328 328 329 329 330 330 330 329 329 328 328 329 330 331 331 330 329 328 327 326 326 325 325 325 325 324 323 322 322 320 320 319 318 317 315 314 313 311 310 308 307 306 305 305 304 303 302 301 299 297 295 294 292 291 289 286 282 278 274 271 268 266 265 263 262 260 258 256 254 252 250 248 246 245 243 242 240 240 239 239
328 328 328 329 329 329 329 330 330 330 330 330 329 329 329 329 330 331 331 331 329 328 328 327 327 327 327 327 327 326 325 325 324 323 322 322 320 319 318 317 316 314 312 311 309 307 306 305 303 302 301 300 299 298 296 294 293 291 290 289 286 282 279 275 272 269 267 266 264 262 260 257 255 253 251 249 247 245 244 242 241 240 239 238 238
329 329 329 329 330 330 330 331 331 331 330 330 330 330 330 330 331 331 330 329 328 328 328 328 328 328 328 328 328 327 326 325 324 324 323 322 321 320 319 318 317 316 314 313 311 309 307 305 303 301 300 299 298 296 295 294 293 292 290 288 285 282 279 277 274 271 269 267 265 262 259 257 254 252 250 248 246 244 243 241 240 239 238 237 237
329 329 330 330 330 331 331 331 331 331 330 330 330 331 331 330 330 330 329 328 328 328 329 329 330 330 330 329 329 328 327 326 324 323 322 321 320 319 318 317 316 315 314 313 312 310 308 307 305 303 301 299 298 295 294 294 294 292 290 287 284 281 279 277 275 272 270 269 266 262 259 256 253 251 248 247 245 243 241 240 239 237 237 236 235
330 330 330 331 331 331 332 332 331 331 331 331 331 331 331 330 330 329 329 328 328 329 329 330 330 330 330 330 329 328 327 326 324 323 322 320 319 318 317 316 315 314 314 313 312 311 309 307 306 304 303 301 299 297 295 294 294 293 290 287 283 281 279 278 275 273 271 269 266 262 258 255 252 249 247 246 244 242 240 239 237 236 235 234 234
330 331 331 331 332 332 332 332 332 331 331 331 332 332 331 331 330 329 329 329 329 329 330 330 331 331 331 330 330 329 328 326 325 323 322 320 319 318 317 316 315 315 314 314 312 311 309 308 307 306 304 303 301 298 296 295 295 293 290 287 284 281 280 278 276 274 272 269 265 261 257 253 251 249 247 245 243 241 239 237 236 234 234 233 232
331 331 332 332 332 333 332 332 332 332 331 332 332 332 332 331 330 330 330 330 330 330 330 331 331 331 331 331 330 329 328 326 324 323 321 320 319 318 318 317 317 316 316 315 313 311 309 308 307 306 305 304 302 300 298 297 295 293 290 287 284 282 281 279 277 275 272 268 263 259 255 252 250 248 245 243 241 240 237 235 234 233 232 231 230
332 332 332 332 333 333 333 333 333 332 332 332 332 332 332 332 331 331 331 331 331 331 331 331 332 332 331 331 330 329 327 325 324 322 321 321 320 320 319 319 319 318 317 316 314 312 310 309 308 307 306 304 302 300 299 297 296 293 290 288 285 283 282 280 278 274 270 266 261 257 254 251 249 246 244 241 240 238 236 234 232 231 230 229 228
332 333 333 333 333 333 333 333 333 333 333 333 333 333 333 333 333 333 332 332 332 331 332 332 332 332 332 331 330 329 327 326 324 323 323 322 322 322 322 322 321 321 319 318 316 313 312 311 310 308 307 305 303 301 299 298 296 293 290 288 287 284 282 280 276 272 267 264 259 256 253 250 247 244 241 239 237 235 234 232 231 230 229 228 227
333 333 333 334 334 334 334 334 334 334 333 333 334 334 334 334 334 333 333 333 332 332 333 333 333 333 332 331 331 329 328 327 326 325 325 324 324 324 324 324 324 323 321 319 317 316 314 313 312 310 308 306 304 302 301 298 296 293 291 289 287 284 281 277 273 269 265 262 258 254 251 247 244 241 239 237 235 233 232 230 229 228 227 226 226
333 334 334 334 334 334 334 334 334 334 334 334 334 334 335 335 334 334 334 333 333 333 333 333 333 333 332 332 331 330 329 328 328 327 327 327 327 327 327 327 326 325 323 321 319 318 317 316 314 312 310 308 306 304 302 299 296 294 292 290 287 283 278 274 270 267 263 260 256 253 249 245 241 239 237 235 233 231 230 229 227 226 225 225 224
334 334 335 335 335 335 335 335 335 335 334 334 335 335 335 335 335 335 335 334 334 334 334 334 334 333 333 333 332 331 331 330 330 330 330 330 330 330 330 329 328 327 325 323 322 320 319 318 316 314 312 310 308 305 302 299 296 294 292 289 285 281 276 272 269 265 261 257 254 250 245 241 238 236 234 232 230 229 228 226 225 224 223 222 221
335 335 335 335 335 335 335 335 335 335 335 335 335 335 335 336 336 335 335 335 334 334 334 334 334 334 334 334 334 333 333 332 332 332 332 332 332 332 332 331 330 329 328 326 324 323 321 319 318 316 314 312 309 306 303 300 297 295 292 288 283 278 274 270 266 261 258 254 251 247 242 238 235 233 231 230 228 227 225 224 223 221 220 219 218
Height
10141 10134 10128 10121 10114 10107 10099 10093 10086 10080 10074 10066 10058 10051 10043 10037 10031 10025 10018 10011 10004 9997 9990 9983 9977 9971 9965 9958 9952 9946 9940 9935 9930 9925 9921 9917 9913 9910 9907 9904 9901 9899 9896 9894 9894 9894 9894 9892 9892 9892 9894 9897 9898 9899 9902 9906 9909 9913 9916 9920 9925 9931 9938 9946 9957 9964 9955 9946 9952 9959 9962 9969 9977 9979 9982 9989 9999 10010 10022 10033 10042 10050 10057 10066 10074
10128 10121 10115 10108 10100 10094 10086 10080 10074 10067 10060 10052 10044 10037 10030 10023 10016 10010 10003 9995 9988 9980 9973 9967 9961 9954 9948 9941 9935 9930 9924 9918 9913 9908 9904 9900 9897 9893 9890 9887 9884 9881 9878 9876 9875 9875 9875 9873 9872 9873 9875 9878 9879 9879 9883 9886 9889 9894 9897 9901 9906 9910 9917 9926 9935 9943 9941 9931 9931 9939 9942 9946 9955 9960 9961 9965 9970 9979 9992 10005 10016 10025 10033 10040 10049
10117 10109 10103 10095 10088 10081 10074 10068 10062 10054 10046 10038 10031 10023 10016 10010 10002 9995 9988 9980 9972 9964 9957 9951 9945 9938 9931 9925 9919 9914 9908 9902 9897 9892 9888 9884 9880 9877 9873 9870 9867 9864 9861 9859 9858 9857 9857 9856 9854 9855 9858 9859 9860 9861 9864 9867 9871 9875 9878 9882 9887 9890 9895 9904 9912 9919 9922 9918 9914 9919 9923 9925 9931 9939 9942 9945 9947 9951 9962 9976 9988 9999 10008 10015 10023
10105 10097 10090 10083 10076 10069 10062 10056 10049 10041 10032 10024 10017 10010 10003 9995 9988 9981 9974 9966 9958 9951 9944 9937 9930 9923 9916 9910 9905 9899 9893 9887 9881 9877 9873 9869 9865 9861 9857 9854 9851 9848 9845 9842 9841 9840 9840 9839 9838 9839 9841 9842 9843 9845 9847 9850 9852 9856 9860 9863 9867 9872 9876 9882 9890 9895 9900 9902 9898 9899 9905 9908 9910 9915 9920 9924 9927 9929 9936 9946 9957 9970 9982 9990 9999
10093 10086 10078 10071 10064 10057 10050 10043 10035 10027 10018 10011 10003 9996 9989 9981 9974 9967 9959 9952 9945 9938 9931 9924 9917 9910 9904 9897 9890 9884 9878 9872 9867 9863 9859 9855 9851 9846 9841 9838 9835 9831 9829 9826 9825 9824 9824 9823 9822 9823 9824 9825 9826 9828 9830 9833 9835 9837 9840 9843 9847 9853 9858 9862 9869 9874 9879 9883 9882 9882 9887 9891 9893 9894 9897 9901 9906 9909 9914 9921 9929 9940 9953 9965 9976
10082 10074 10067 10059 10052 10045 10038 10030 10022 10013 10005 9997 9990 9982 9975 9967 9960 9953 9945 9938 9931 9924 9917 9910 9903 9897 9891 9883 9876 9870 9864 9859 9854 9850 9846 9841 9836 9831 9827 9823 9819 9816 9813 9811 9809 9809 9808 9808 9807 9808 9809 9810 9810 9812 9814 9815 9818 9820 9822 9826 9830 9835 9839 9843 9848 9854 9858 9862 9864 9864 9868 9873 9875 9875 9875 9878 9884 9889 9893 9899 9905 9913 9924 9938 9952
10071 10063 10056 10048 10040 10033 10026 10017 10008 10000 9992 9984 9977 9969 9961 9954 9946 9938 9930 9923 9917 9910 9903 9896 9890 9883 9877 9870 9863 9856 9851 9846 9841 9837 9832 9827 9822 9817 9813 9809 9805 9801 9798 9796 9794 9794 9794 9793 9793 9793 9794 9795 9795 9796 9798 9799 9801 9804 9805 9808 9812 9817 9821 9824 9828 9833 9838 9842 9845 9847 9850 9854 9856 9856 9854 9857 9864 9869 9871 9876 9884 9892 9900 9912 9926
10060 10052 10044 10036 10029 10021 10013 10004 9995 9986 9979 9971 9963 9956 9948 9940 9932 9924 9917 9909 9902 9896 9889 9882 9876 9870 9863 9856 9849 9843 9837 9833 9829 9825 9819 9814 9809 9804 9800 9795 9791 9786 9783 9781 9780 9780 9780 9779 9779 9779 9778 9779 9780 9781 9782 9784 9785 9786 9788 9792 9796 9800 9803 9805 9809 9814 9818 9822 9825 9829 9832 9836 9837 9837 9836 9837 9843 9849 9851 9854 9864 9874 9879 9887 9899
10049 10041 10033 10025 10017 10009 10000 9991 9982 9973 9966 9958 9951 9943 9935 9927 9919 9911 9903 9896 9889 9882 9875 9868 9862 9855 9849 9842 9835 9829 9824 9820 9816 9812 9806 9801 9796 9792 9787 9782 9777 9772 9769 9767 9766 9766 9766 9765 9765 9765 9764 9764 9765 9766 9767 9768 9769 9770 9772 9776 9780 9783 9786 9788 9791 9794 9798 9802 9806 9809 9815 9818 9818 9817 9817 9817 9822 9829 9832 9836 9845 9852 9854 9863 9877
10037 10028 10020 10012 10005 9996 9987 9978 9970 9962 9954 9946 9939 9931 9923 9915 9907 9899 9891 9883 9876 9868 9862 9855 9848 9842 9835 9828 9821 9816 9811 9807 9804 9798 9793 9788 9784 9779 9774 9768 9763 9759 9756 9754 9753 9752 9752 9751 9751 9750 9750 9750 9750 9751 9752 9753 9754 9756 9758 9761 9765 9768 9770 9771 9772 9775 9779 9784 9787 9791 9797 9800 9799 9798 9800 9800 9803 9810 9813 9816 9824 9830 9832 9841 9856
10024 10016 10008 10001 9993 9984 9975 9967 9959 9951 9942 9935 9927 9919 9911 9903 9894 9887 9879 9870 9863 9856 9849 9843 9835 9829 9823 9816 9809 9804 9799 9796 9791 9785 9780 9776 9772 9767 9760 9754 9750 9747 9744 9742 9740 9739 9739 9738 9737 9737 9736 9736 9736 9736 9737 9739 9741 9743 9745 9747 9750 9751 9752 9753 9754 9757 9762 9766 9769 9773 9779 9781 9781 9781 9784 9784 9785 9791 9796 9797 9805 9813 9816 9822 9835
10013 10005 9997 9990 9982 9973 9965 9956 9948 9939 9931 9923 9916 9907 9899 9890 9882 9875 9867 9858 9850 9843 9837 9830 9823 9817 9811 9805 9798 9792 9788 9785 9780 9774 9768 9765 9762 9756 9747 9741 9736 9734 9732 9730 9728 9727 9726 9726 9725 9723 9722 9722 9722 9723 9724 9726 9728 9730 9732 9733 9733 9734 9735 9736 9739 9742 9746 9750 9753 9755 9759 9762 9763 9765 9767 9768 9769 9776 9780 9782 9787 9795 9800 9806 9817
10002 9994 9987 9979 9971 9962 9954 9945 9937 9928 9919 9911 9903 9895 9887 9878 9870 9863 9855 9846 9838 9831 9825 9818 9811 9805 9800 9793 9787 9781 9777 9773 9768 9762 9757 9753 9751 9745 9737 9729 9724 9721 9719 9718 9717 9716 9715 9714 9712 9710 9709 9709 9709 9710 9711 9713 9716 9717 9718 9717 9717 9718 9719 9722 9725 9727 9730 9733 9736 9737 9740 9744 9747 9748 9749 9750 9755 9760 9763 9765 9769 9775 9782 9791 9800
9991 9984 9976 9968 9960 9951 9943 9934 9925 9916 9908 9900 9892 9883 9875 9867 9859 9851 9843 9835 9827 9820 9813 9806 9800 9794 9788 9782 9775 9769 9766 9763 9757 9751 9747 9743 9739 9734 9727 9719 9713 9709 9707 9707 9706 9704 9703 9701 9699 9697 9696 9696 9697 9698 9699 9701 9703 9704 9703 9701 9701 9703 9705 9707 9709 9712 9715 9717 9719 9720 9721 9725 9731 9732 9731 9735 9740 9744 9746 9749 9753 9759 9768 9775 9781
9980 9973 9965 9957 9948 9939 9931 9923 9914 9905 9897 9889 9880 9871 9863 9855 9848 9840 9832 9824 9816 9809 9803 9795 9789 9782 9777 9772 9765 9758 9755 9752 9746 9740 9736 9733 9729 9724 9717 9711 9704 9699 9697 9696 9694 9692 9690 9688 9686 9684 9684 9683 9684 9686 9688 9690 9690 9689 9687 9686 9688 9689 9690 9691 9693 9696 9699 9701 9703 9704 9704 9708 9713 9715 9716 9719 9724 9728 9731 9735 9741 9746 9751 9758 9764
9969 9962 9954 9945 9936 9928 9920 9911 9902 9893 9885 9877 9869 9860 9852 9844 9837 9830 9822 9813 9805 9798 9792 9785 9778 9771 9766 9761 9754 9747 9744 9741 9736 9730 9726 9723 9719 9713 9708 9702 9696 9692 9688 9685 9683 9680 9678 9676 9674 9673 9671 9671 9671 9673 9675 9678 9677 9675 9673 9673 9674 9675 9676 9676 9677 9679 9681 9685 9688 9689 9688 9689 9693 9697 9700 9702 9705 9711 9715 9720 9725 9729 9732 9740 9746
9959 9952 9943 9933 9925 9917 9908 9900 9890 9882 9874 9865 9857 9849 9841 9833 9826 9819 9811 9802 9794 9787 9781 9774 9767 9761 9755 9750 9744 9737 9732 9730 9727 9720 9716 9714 9709 9703 9698 9693 9688 9684 9680 9676 9673 9671 9668 9666 9664 9662 9660 9658 9658 9659 9662 9665 9663 9660 9659 9659 9660 9661 9661 9660 9662 9665 9667 9670 9672 9672 9671 9672 9675 9681 9686 9687 9689 9695 9701 9706 9710 9712 9717 9726 9732
9948 9940 9931 9921 9913 9905 9896 9887 9879 9870 9862 9854 9846 9838 9830 9823 9815 9807 9800 9791 9783 9776 9770 9763 9756 9751 9745 9740 9734 9727 9721 9719 9717 9711 9706 9704 9700 9694 9688 9683 9679 9675 9671 9667 9664 9662 9659 9657 9655 9652 9649 9647 9646 9647 9650 9651 9649 9647 9647 9647 9647 9646 9645 9646 9650 9652 9653 9653 9654 9655 9657 9659 9662 9666 9669 9671 9674 9679 9685 9691 9694 9696 9705 9715 9719
9936 9928 9918 9909 9901 9893 9884 9875 9867 9859 9851 9843 9835 9827 9819 9812 9804 9796 9788 9780 9772 9765 9759 9752 9744 9740 9735 9730 9724 9718 9711 9707 9705 9702 9697 9694 9690 9685 9679 9674 9670 9666 9661 9657 9654 9652 9650 9648 9645 9643 9640 9636 9635 9636 9637 9637 9637 9636 9636 9636 9634 9632 9632 9635 9637 9636 9636 9638 9640 9642 9642 9643 9647 9652 9654 9655 9658 9662 9670 9676 9679 9682 9692 9700 9703
9924 9915 9906 9898 9889 9881 9872 9864 9856 9848 9840 9832 9823 9815 9808 9801 9793 9785 9776 9768 9760 9754 9748 9741 9734 9728 9725 9720 9714 9709 9703 9697 9694 9692 9687 9683 9681 9676 9671 9666 9661 9657 9652 9648 9645 9642 9640 9638 9635 9633 9631 9627 9625 9625 9625 9625 9626 9626 9625 9624 9622 9621 9622 9622 9621 9620 9622 9624 9625 9627 9627 9628 9633 9638 9640 9642 9643 9646 9654 9662 9666 9670 9678 9684 9687
9913 9903 9895 9886 9878 9870 9861 9853 9845 9837 9829 9821 9812 9803 9796 9790 9781 9773 9765 9757 9749 9743 9737 9731 9723 9717 9713 9710 9704 9700 9694 9688 9683 9681 9678 9673 9670 9667 9662 9657 9653 9649 9643 9638 9635 9632 9630 9628 9625 9622 9620 9618 9615 9614 9614 9614 9614 9615 9614 9612 9611 9611 9610 9607 9607 9608 9609 9609 9609 9610 9612 9615 9619 9623 9627 9629 9630 9632 9638 9646 9653 9658 9663 9668 9671
9901 9892 9884 9875 9867 9859 9850 9841 9833 9825 9817 9810 9801 9793 9785 9778 9770 9762 9755 9746 9738 9732 9727 9721 9713 9706 9702 9699 9695 9690 9685 9680 9675 9671 9668 9664 9660 9657 9653 9649 9645 9641 9635 9629 9626 9623 9620 9618 9614 9612 9610 9608 9606 9604 9604 9603 9603 9604 9603 9601 9602 9601 9597 9595 9596 9596 9595 9594 9595 9596 9597 9600 9605 9611 9615 9617 9617 9619 9624 9631 9638 9644 9649 9654 9657
9890 9881 9873 9865 9856 9847 9838 9829 9822 9814 9806 9799 9791 9782 9775 9767 9759 9752 9745 9737 9728 9721 9716 9711 9704 9697 9692 9688 9685 9681 9676 9671 9666 9662 9657 9653 9650 9646 9643 9639 9636 9633 9628 9622 9618 9614 9611 9607 9604 9602 9599 9597 9595 9594 9593 9593 9592 9592 9591 9591 9592 9591 9587 9585 9585 9584 9582 9581 9582 9582 9583 9586 9592 9598 9602 9605 9606 9607 9611 9617 9624 9631 9636 9641 9645
9879 9870 9862 9854 9845 9836 9827 9818 9811 9803 9796 9788 9780 9773 9765 9757 9749 9742 9735 9727 9719 9712 9706 9701 9695 9688 9682 9678 9675 9671 9667 9662 9658 9654 9649 9643 9639 9635 9632 9628 9626 9623 9619 9615 9610 9606 9601 9597 9594 9591 9588 9585 9584 9583 9582 9582 9581 9581 9580 9580 9581 9581 9578 9576 9574 9572 9570 9568 9568 9569 9570 9573 9579 9584 9589 9593 9595 9596 9599 9604 9611 9618 9624 9628 9632
9868 9860 9851 9843 9835 9826 9817 9808 9800 9793 9785 9778 9770 9763 9756 9748 9740 9733 9726 9718 9710 9703 9697 9692 9686 9679 9673 9668 9664 9661 9658 9654 9650 9646 9641 9635 9630 9626 9621 9617 9615 9612 9609 9606 9603 9598 9593 9589 9585 9581 9577 9574 9573 9572 9571 9570 9569 9569 9568 9568 9569 9569 9568 9567 9565 9562 9560 9557 9557 9557 9557 9561 9567 9572 9576 9581 9584 9586 9589 9593 9598 9604 9610 9615 9619
9857 9849 9841 9832 9824 9816 9807 9798 9790 9782 9775 9768 9760 9753 9747 9740 9731 9724 9717 9709 9702 9695 9689 9683 9677 9671 9665 9660 9655 9650 9647 9645 9642 9638 9634 9628 9622 9617 9612 9607 9603 9600 9598 9596 9593 9589 9585 9581 9577 9573 9569 9566 9563 9561 9560 9558 9557 9557 9556 9555 9556 9557 9557 9556 9554 9552 9550 9548 9546 9545 9545 9549 9555 9560 9564 9569 9572 9575 9579 9583 9586 9591 9596 9602 9607
9847 9838 9831 9823 9814 9806 9798 9789 9781 9773 9764 9757 9750 9743 9737 9731 9723 9716 9709 9701 9693 9687 9681 9675 9669 9663 9656 9651 9647 9642 9637 9635 9633 9629 9626 9621 9615 9609 9604 9599 9595 9590 9587 9585 9582 9579 9576 9572 9568 9565 9561 9558 9555 9552 9550 9548 9546 9545 9544 9544 9544 9545 9545 9545 9544 9542 9541 9539 9537 9535 9534 9538 9543 9548 9553 9557 9560 9563 9568 9573 9576 9578 9583 9590 9595
9837 9828 9821 9813 9804 9796 9788 9780 9772 9763 9755 9747 9740 9733 9728 9722 9714 9707 9701 9694 9685 9679 9673 9667 9662 9656 9649 9643 9639 9633 9628 9626 9624 9620 9617 9613 9608 9602 9597 9592 9587 9582 9578 9575 9572 9569 9566 9563 9560 9557 9554 9551 9547 9544 9542 9539 9537 9534 9533 9532 9533 9533 9533 9534 9533 9532 9531 9528 9526 9525 9525 9528 9533 9536 9541 9545 9549 9553 9558 9562 9565 9567 9571 9577 9580
9828 9819 9811 9803 9795 9786 9778 9770 9763 9755 9746 9738 9730 9723 9718 9714 9707 9698 9691 9686 9679 9672 9665 9660 9654 9648 9641 9636 9631 9626 9619 9616 9614 9611 9608 9604 9600 9594 9589 9584 9580 9576 9572 9567 9564 9561 9558 9556 9553 9551 9548 9545 9540 9536 9533 9531 9528 9525 9524 9522 9521 9521 9522 9523 9522 9521 9520 9518 9516 9515 9517 9520 9523 9526 9530 9534 9538 9542 9547 9550 9552 9554 9557 9563 9565
9818 9810 9802 9794 9786 9777 9769 9761 9753 9746 9738 9730 9722 9714 9707 9704 9700 9692 9683 9677 9673 9666 9659 9652 9647 9641 9635 9629 9624 9619 9614 9609 9605 9602 9600 9597 9592 9587 9581 9576 9572 9568 9562 9557 9553 9550 9546 9543 9540 9538 9537 9535 9532 9529 9526 9522 9519 9517 9514 9513 9511 9511 9511 9512 9512 9511 9510 9508 9507 9507 9508 9511 9514 9517 9521 9524 9528 9532 9536 9538 9539 9541 9545 9550 9552
9809 9800 9793 9785 9776 9768 9760 9752 9744 9737 9729 9722 9715 9707 9698 9692 9690 9686 9679 9670 9665 9660 9654 9646 9640 9635 9629 9622 9616 9610 9606 9601 9597 9593 9590 9587 9583 9577 9571 9565 9561 9557 9551 9545 9541 9536 9531 9528 9526 9524 9522 9521 9519 9517 9516 9513 9511 9509 9506 9504 9502 9501 9501 9501 9501 9500 9500 9500 9499 9499 9499 9501 9505 9508 9511 9514 9517 9521 9524 9526 9528 9529 9533 9537 9540
9801 9792 9784 9776 9767 9759 9751 9744 9736 9728 9721 9713 9706 9700 9692 9683 9678 9676 9673 9667 9660 9654 9648 9642 9634 9628 9623 9617 9611 9604 9599 9594 9589 9583 9580 9576 9573 9568 9562 9555 9552 9549 9542 9537 9533 9529 9523 9520 9517 9515 9513 9510 9508 9506 9504 9502 9501 9500 9498 9496 9494 9493 9492 9491 9490 9489 9489 9490 9491 9491 9491 9492 9495 9498 9502 9504 9507 9510 9513 9516 9518 9519 9521 9524 9527
9793 9784 9776 9768 9759 9750 9743 9736 9728 9720 9713 9706 9698 9691 9685 9677 9670 9664 9662 9659 9655 9649 9644 9638 9631 9623 9616 9611 9605 9600 9595 9590 9585 9579 9574 9569 9565 9561 9555 9549 9545 9541 9535 9529 9526 9522 9517 9513 9510 9507 9505 9503 9500 9498 9495 9493 9491 9490 9488 9487 9486 9486 9485 9483 9481 9480 9480 9480 9481 9483 9484 9484 9485 9488 9492 9495 9497 9499 9502 9506 9507 9508 9510 9513 9516
9784 9776 9768 9760 9751 9743 9735 9728 9720 9712 9705 9698 9691 9683 9677 9671 9664 9657 9651 9647 9644 9641 9637 9633 9626 9620 9613 9606 9598 9592 9588 9584 9580 9576 9570 9565 9560 9555 9549 9542 9537 9534 9528 9523 9518 9513 9508 9504 9501 9499 9497 9494 9492 9490 9487 9485 9483 9481 9479 9478 9477 9477 9476 9475 9473 9472 9471 9471 9472 9474 9475 9476 9477 9479 9482 9486 9488 9490 9492 9495 9497 9498 9500 9502 9505
9775 9767 9760 9752 9744 9735 9728 9720 9713 9705 9698 9690 9683 9677 9670 9664 9657 9651 9645 9639 9633 9628 9625 9623 9618 9613 9608 9601 9594 9587 9581 9576 9573 9569 9565 9560 9555 9550 9543 9536 9530 9526 9521 9515 9511 9506 9500 9496 9493 9490 9487 9485 9483 9480 9478 9476 9474 9472 9470 9469 9468 9467 9467 9467 9465 9464 9463 9463 9464 9465 9467 9468 9469 9470 9473 9476 9479 9481 9483 9485 9487 9489 9490 9493 9495
9767 9759 9752 9744 9736 9728 9721 9713 9706 9698 9691 9683 9676 9670 9664 9658 9651 9645 9639 9633 9626 9620 9614 9611 9607 9603 9599 9594 9587 9580 9574 9569 9564 9560 9556 9552 9548 9543 9537 9531 9525 9519 9513 9508 9503 9499 9494 9489 9485 9482 9479 9476 9474 9471 9468 9466 9465 9463 9461 9460 9459 9458 9458 9458 9457 9456 9455 9456 9456 9457 9459 9460 9461 9462 9464 9467 9470 9472 9474 9476 9478 9479 9481 9484 9486
9759 9752 9744 9736 9728 9721 9713 9706 9699 9691 9684 9677 9670 9664 9658 9652 9646 9639 9633 9626 9620 9614 9608 9602 9598 9593 9589 9585 9580 9574 9567 9561 9556 9551 9546 9542 9538 9533 9529 9524 9518 9512 9506 9500 9496 9491 9486 9481 9478 9474 9471 9468 9466 9463 9460 9458 9456 9454 9453 9452 9451 9450 9450 9449 9449 9448 9448 9448 9449 9450 9451 9452 9454 9454 9456 9459 9461 9463 9464 9467 9469 9471 9473 9475 9478
9751 9744 9736 9728 9721 9713 9706 9698 9691 9684 9677 9670 9664 9658 9652 9646 9640 9633 9627 9621 9614 9608 9602 9597 9591 9585 9580 9574 9570 9565 9558 9553 9548 9543 9537 9533 9529 9524 9520 9516 9511 9506 9500 9494 9488 9483 9478 9473 9469 9466 9462 9460 9457 9455 9452 9450 9448 9446 9445 9444 9443 9442 9441 9441 9441 9440 9440 9440 9441 9442 9443 9444 9446 9447 9449 9451 9453 9454 9456 9458 9460 9463 9465 9467 9470
9743 9736 9729 9721 9714 9706 9699 9691 9683 9677 9670 9664 9658 9652 9645 9639 9633 9627 9621 9615 9609 9603 9597 9591 9585 9579 9573 9566 9560 9554 9548 9543 9538 9533 9528 9523 9519 9515 9511 9507 9502 9498 9492 9487 9482 9477 9471 9466 9462 9458 9454 9451 9449 9446 9444 9442 9441 9439 9437 9436 9435 9434 9434 9433 9433 9433 9432 9433 9434 9435 9436 9437 9438 9440 9441 9443 9445 9446 9448 9450 9453 9455 9457 9460 9463
9735 9728 9721 9714 9707 9699 9692 9685 9677 9670 9664 9658 9652 9646 9639 9633 9627 9621 9615 9609 9603 9597 9591 9585 9579 9573 9567 9560 9553 9547 9540 9534 9528 9523 9518 9513 9508 9503 9499 9495 9491 9487 9483 9479 9474 9470 9465 9460 9456 9452 9448 9444 9441 9438 9436 9434 9433 9432 9430 9429 9428 9427 9426 9426 9426 9426 9425 9426 9427 9428 9429 9430 9431 9432 9434 9436 9437 9439 9440 9443 9445 9448 9450 9453 9456
9728 9721 9714 9707 9699 9692 9685 9678 9671 9664 9658 9652 9646 9639 9633 9627 9621 9615 9610 9604 9598 9591 9585 9579 9572 9566 9560 9554 9548 9542 9535 9529 9522 9516 9510 9505 9499 9494 9488 9484 9479 9475 9471 9467 9464 9461 9457 9453 9449 9445 9441 9438 9435 9432 9428 9427 9426 9425 9424 9422 9421 9420 9419 9419 9418 9418 9419 9419 9421 9422 9422 9423 9424 9425 9427 9428 9430 9432 9434 9436 9439 9441 9444 9446 9449
9721 9714 9707 9700 9692 9685 9678 9671 9665 9658 9652 9646 9640 9634 9627 9622 9616 9610 9604 9599 9593 9586 9579 9572 9565 9559 9553 9548 9542 9536 9530 9524 9518 9512 9506 9500 9494 9488 9483 9477 9472 9467 9462 9458 9454 9450 9447 9443 9441 9438 9434 9431 9429 9425 9422 9420 9419 9418 9417 9416 9414 9413 9412 9412 9412 9412 9412 9413 9414 9415 9416 9417 9417 9418 9420 9421 9423 9425 9427 9430 9432 9435 9437 9440 9443
9715 9707 9700 9693 9686 9678 9671 9665 9658 9652 9646 9640 9634 9628 9622 9616 9610 9605 9599 9593 9587 9580 9573 9566 9559 9553 9546 9541 9535 9529 9523 9518 9512 9506 9500 9494 9489 9483 9478 9472 9467 9461 9456 9451 9447 9442 9438 9434 9431 9429 9426 9424 9421 9418 9416 9413 9412 9411 9410 9409 9408 9406 9406 9405 9405 9405 9406 9407 9408 9409 9409 9410 9411 9412 9413 9415 9417 9419 9421 9423 9426 9428 9431 9434 9437
9708 9701 9694 9687 9679 9673 9666 9659 9652 9646 9640 9634 9628 9623 9617 9611 9605 9599 9593 9587 9580 9574 9568 9561 9555 9548 9541 9534 9528 9522 9516 9510 9505 9499 9493 9488 9482 9477 9471 9466 9461 9455 9450 9445 9441 9435 9431 9427 9423 9421 9418 9416 9414 9411 9409 9407 9406 9405 9403 9402 9401 9400 9399 9399 9399 9400 9400 9401 9402 9402 9403 9404 9405 9406 9407 9409 9411 9413 9415 9418 9420 9423 9425 9428 9432
9702 9694 9687 9680 9673 9667 9660 9653 9647 9640 9634 9628 9622 9617 9611 9606 9600 9594 9588 9581 9575 9568 9562 9555 9549 9542 9536 9529 9522 9516 9510 9504 9498 9492 9487 9481 9476 9470 9464 9459 9454 9449 9444 9439 9434 9429 9425 9420 9417 9414 9411 9409 9407 9405 9402 9401 9400 9399 9397 9396 9395 9394 9394 9393 9394 9394 9395 9395 9396 9396 9397 9398 9399 9400 9402 9403 9405 9407 9410 9412 9415 9417 9420 9423 9426
9695 9688 9681 9674 9667 9661 9654 9648 9641 9635 9628 9622 9616 9611 9605 9600 9594 9588 9582 9575 9569 9562 9555 9549 9543 9536 9530 9523 9517 9511 9505 9499 9493 9487 9481 9475 9469 9464 9458 9452 9447 9442 9437 9432 9427 9423 9418 9415 9411 9408 9405 9403 9401 9399 9396 9395 9394 9393 9391 9390 9389 9389 9388 9388 9388 9389 9389 9389 9390 9391 9391 9392 9394 9395 9397 9398 9400 9402 9405 9407 9409 9412 9415 9418 9421
9689 9682 9675 9668 9661 9654 9648 9642 9636 9629 9623 9617 9611 9605 9599 9593 9587 9581 9575 9569 9563 9556 9549 9543 9537 9530 9524 9518 9512 9506 9499 9493 9487 9481 9475 9469 9463 9457 9451 9446 9441 9435 9430 9425 9421 9416 9412 9409 9405 9402 9400 9397 9395 9393 9391 9389 9388 9387 9386 9385 9384 9383 9383 9383 9383 9383 9384 9384 9385 9385 9386 9388 9389 9390 9392 9393 9395 9398 9400 9402 9405 9407 9410 9413 9416
9683 9676 9669 9662 9655 9649 9642 9636 9630 9624 9617 9611 9605 9599 9593 9587 9581 9575 9569 9563 9556 9550 9544 9537 9531 9524 9518 9512 9506 9499 9493 9487 9480 9474 9468 9462 9456 9450 9445 9440 9434 9429 9424 9419 9414 9410 9406 9403 9400 9397 9394 9392 9390 9388 9386 9384 9383 9381 9380 9379 9379 9378 9378 9378 9378 9378 9379 9379 9380 9381 9382 9383 9385 9386 9387 9389 9391 9393 9395 9398 9400 9403 9406 9409 9412
9678 9671 9664 9657 9650 9643 9637 9630 9624 9618 9612 9605 9599 9593 9588 9582 9576 9570 9564 9557 9551 9544 9538 9532 9525 9519 9513 9506 9500 9493 9486 9480 9474 9468 9462 9456 9450 9444 9438 9433 9428 9423 9418 9413 9408 9404 9401 9397 9394 9391 9389 9387 9384 9382 9381 9379 9378 9376 9375 9375 9374 9374 9373 9373 9373 9374 9374 9375 9375 9377 9378 9379 9380 9382 9383 9385 9387 9389 9392 9394 9397 9399 9402 9405 9408
9672 9665 9658 9651 9645 9638 9632 9625 9619 9613 9607 9600 9594 9588 9582 9576 9570 9564 9558 9552 9545 9539 9532 9526 9520 9514 9507 9501 9494 9487 9480 9474 9468 9461 9455 9449 9443 9438 9432 9427 9421 9416 9412 9407 9403 9399 9395 9392 9389 9386 9384 9382 9380 9378 9376 9374 9373 9372 9371 9370 9370 9369 9369 9369 9369 9370 9370 9371 9372 9373 9374 9375 9377 9378 9380 9382 9384 9386 9388 9391 9393 9396 9399 9402 9405
9666 9660 9653 9646 9640 9633 9627 9620 9614 9608 9602 9596 9590 9584 9577 9571 9565 9559 9553 9547 9540 9534 9527 9521 9514 9508 9502 9495 9488 9481 9475 9468 9462 9455 9449 9443 9437 9431 9426 9421 9416 9411 9406 9402 9397 9394 9390 9387 9384 9382 9379 9377 9375 9373 9371 9370 9369 9367 9367 9366 9366 9365 9365 9365 9365 9366 9366 9367 9368 9369 9371 9372 9373 9375 9376 9378 9380 9383 9385 9388 9390 9393 9396 9399 9402